Вернуться в каталог

COSMOS 1135

АктивенНавигацияLEO
NORAD 11543·PAYLOAD·🇷🇺 Russia

Запущен Sep 25, 1979 с Plesetsk Cosmodrome

Loading…

Ближайшие Пролёты (ближайшие 24 часа)

TLE

СвежийSource: Space-Track

Эпоха: Sep 14, 2026, 22:22 UTC

1 11543U 79084F   26257.93254785  .00000000  00000-0  10490-3 0  9994
2 11543  74.0277 330.0044 0018582 101.6201  10.9373 12.47104695138376

Отслеживайте COSMOS 1135 в реальном времени с AllMySat

Download on the App Store